owner,sensor,date,latitude,longitude,vertical_datum,sea_water_temperature,qcFlag 
TCOON,ioos:station:TCOON:127:1,2016-01-01T00:18:00Z,28.2598,-96.7737,0.0,12.8,2 
TCOON,ioos:station:TCOON:127:1,2016-01-01T01:18:00Z,28.2598,-96.7737,0.0,12.8,2 
TCOON,ioos:station:TCOON:127:1,2016-01-01T02:18:00Z,28.2598,-96.7737,0.0,12.7,2 
TCOON,ioos:station:TCOON:127:1,2016-01-01T03:18:00Z,28.2598,-96.7737,0.0,12.6,2 
TCOON,ioos:station:TCOON:127:1,2016-01-01T04:24:00Z,28.2598,-96.7737,0.0,12.6,2 
TCOON,ioos:station:TCOON:127:1,2016-01-01T05:18:00Z,28.2598,-96.7737,0.0,12.6,2 
TCOON,ioos:station:TCOON:127:1,2016-01-01T06:18:00Z,28.2598,-96.7737,0.0,12.6,2 
TCOON,ioos:station:TCOON:127:1,2016-01-01T07:18:00Z,28.2598,-96.7737,0.0,12.5,2 
TCOON,ioos:station:TCOON:127:1,2016-01-01T08:18:00Z,28.2598,-96.7737,0.0,12.4,2 
TCOON,ioos:station:TCOON:127:1,2016-01-01T09:24:00Z,28.2598,-96.7737,0.0,12.4,2 
TCOON,ioos:station:TCOON:127:1,2016-01-01T10:18:00Z,28.2598,-96.7737,0.0,12.3,2 
TCOON,ioos:station:TCOON:127:1,2016-01-01T11:18:00Z,28.2598,-96.7737,0.0,12.3,2 
TCOON,ioos:station:TCOON:127:1,2016-01-01T12:18:00Z,28.2598,-96.7737,0.0,12.2,2 
TCOON,ioos:station:TCOON:127:1,2016-01-01T13:18:00Z,28.2598,-96.7737,0.0,12.2,2 
TCOON,ioos:station:TCOON:127:1,2016-01-01T14:18:00Z,28.2598,-96.7737,0.0,12.1,2 
TCOON,ioos:station:TCOON:127:1,2016-01-01T15:18:00Z,28.2598,-96.7737,0.0,12.0,2 
TCOON,ioos:station:TCOON:127:1,2016-01-01T16:18:00Z,28.2598,-96.7737,0.0,12.0,2 
TCOON,ioos:station:TCOON:127:1,2016-01-01T17:18:00Z,28.2598,-96.7737,0.0,11.9,2 
TCOON,ioos:station:TCOON:127:1,2016-01-01T18:18:00Z,28.2598,-96.7737,0.0,11.9,2 
TCOON,ioos:station:TCOON:127:1,2016-01-02T21:30:00Z,28.2598,-96.7737,0.0,10.2,2 
TCOON,ioos:station:TCOON:127:1,2016-01-02T22:48:00Z,28.2598,-96.7737,0.0,10.2,2 
TCOON,ioos:station:TCOON:127:1,2016-01-02T23:18:00Z,28.2598,-96.7737,0.0,10.2,2 
TCOON,ioos:station:TCOON:127:1,2016-01-03T00:18:00Z,28.2598,-96.7737,0.0,10.1,2 
TCOON,ioos:station:TCOON:127:1,2016-01-03T01:36:00Z,28.2598,-96.7737,0.0,10.1,2 
TCOON,ioos:station:TCOON:127:1,2016-01-03T02:18:00Z,28.2598,-96.7737,0.0,10.1,2 
TCOON,ioos:station:TCOON:127:1,2016-01-03T03:18:00Z,28.2598,-96.7737,0.0,10.0,2 
TCOON,ioos:station:TCOON:127:1,2016-01-03T04:18:00Z,28.2598,-96.7737,0.0,10.1,2 
TCOON,ioos:station:TCOON:127:1,2016-01-03T05:18:00Z,28.2598,-96.7737,0.0,10.0,2 
TCOON,ioos:station:TCOON:127:1,2016-01-03T06:18:00Z,28.2598,-96.7737,0.0,10.0,2 
TCOON,ioos:station:TCOON:127:1,2016-01-03T07:30:00Z,28.2598,-96.7737,0.0,9.9,2 
TCOON,ioos:station:TCOON:127:1,2016-01-03T08:24:00Z,28.2598,-96.7737,0.0,9.9,2 
TCOON,ioos:station:TCOON:127:1,2016-01-03T09:24:00Z,28.2598,-96.7737,0.0,9.8,2 
TCOON,ioos:station:TCOON:127:1,2016-01-03T10:30:00Z,28.2598,-96.7737,0.0,9.7,2 
TCOON,ioos:station:TCOON:127:1,2016-01-03T11:30:00Z,28.2598,-96.7737,0.0,9.7,2 
TCOON,ioos:station:TCOON:127:1,2016-01-03T12:42:00Z,28.2598,-96.7737,0.0,9.6,2 
TCOON,ioos:station:TCOON:127:1,2016-01-03T13:18:00Z,28.2598,-96.7737,0.0,9.6,2 
TCOON,ioos:station:TCOON:127:1,2016-01-03T14:18:00Z,28.2598,-96.7737,0.0,9.5,2 
TCOON,ioos:station:TCOON:127:1,2016-01-03T15:36:00Z,28.2598,-96.7737,0.0,9.5,2 
TCOON,ioos:station:TCOON:127:1,2016-01-03T20:30:00Z,28.2598,-96.7737,0.0,10.2,2 
TCOON,ioos:station:TCOON:127:1,2016-01-03T21:18:00Z,28.2598,-96.7737,0.0,10.3,2 
TCOON,ioos:station:TCOON:127:1,2016-01-03T22:18:00Z,28.2598,-96.7737,0.0,10.3,2 
TCOON,ioos:station:TCOON:127:1,2016-01-03T23:18:00Z,28.2598,-96.7737,0.0,10.3,2 
TCOON,ioos:station:TCOON:127:1,2016-01-04T00:18:00Z,28.2598,-96.7737,0.0,10.4,2 
TCOON,ioos:station:TCOON:127:1,2016-01-04T01:18:00Z,28.2598,-96.7737,0.0,10.2,2 
TCOON,ioos:station:TCOON:127:1,2016-01-04T02:18:00Z,28.2598,-96.7737,0.0,10.3,2 
TCOON,ioos:station:TCOON:127:1,2016-01-04T03:42:00Z,28.2598,-96.7737,0.0,10.4,2 
TCOON,ioos:station:TCOON:127:1,2016-01-04T04:18:00Z,28.2598,-96.7737,0.0,10.3,2 
TCOON,ioos:station:TCOON:127:1,2016-01-04T05:18:00Z,28.2598,-96.7737,0.0,10.3,2 
TCOON,ioos:station:TCOON:127:1,2016-01-04T06:18:00Z,28.2598,-96.7737,0.0,10.2,2 
TCOON,ioos:station:TCOON:127:1,2016-01-04T07:42:00Z,28.2598,-96.7737,0.0,10.0,2 
TCOON,ioos:station:TCOON:127:1,2016-01-04T08:18:00Z,28.2598,-96.7737,0.0,10.0,2 
TCOON,ioos:station:TCOON:127:1,2016-01-04T09:24:00Z,28.2598,-96.7737,0.0,10.0,2 
TCOON,ioos:station:TCOON:127:1,2016-01-04T16:36:00Z,28.2598,-96.7737,0.0,9.6,2 
TCOON,ioos:station:TCOON:127:1,2016-01-04T17:30:00Z,28.2598,-96.7737,0.0,9.8,2 
TCOON,ioos:station:TCOON:127:1,2016-01-04T18:18:00Z,28.2598,-96.7737,0.0,10.1,2 
TCOON,ioos:station:TCOON:127:1,2016-01-04T19:18:00Z,28.2598,-96.7737,0.0,10.2,2 
TCOON,ioos:station:TCOON:127:1,2016-01-04T20:24:00Z,28.2598,-96.7737,0.0,10.9,2 
TCOON,ioos:station:TCOON:127:1,2016-01-04T21:18:00Z,28.2598,-96.7737,0.0,11.2,2 
TCOON,ioos:station:TCOON:127:1,2016-01-04T22:48:00Z,28.2598,-96.7737,0.0,11.2,2 
TCOON,ioos:station:TCOON:127:1,2016-01-04T23:24:00Z,28.2598,-96.7737,0.0,11.3,2 
TCOON,ioos:station:TCOON:127:1,2016-01-05T00:18:00Z,28.2598,-96.7737,0.0,11.2,2 
TCOON,ioos:station:TCOON:127:1,2016-01-05T01:18:00Z,28.2598,-96.7737,0.0,11.0,2 
TCOON,ioos:station:TCOON:127:1,2016-01-05T02:24:00Z,28.2598,-96.7737,0.0,10.8,2 
TCOON,ioos:station:TCOON:127:1,2016-01-05T03:18:00Z,28.2598,-96.7737,0.0,10.7,2 
TCOON,ioos:station:TCOON:127:1,2016-01-05T04:18:00Z,28.2598,-96.7737,0.0,10.6,2 
TCOON,ioos:station:TCOON:127:1,2016-01-05T05:18:00Z,28.2598,-96.7737,0.0,10.5,2 
TCOON,ioos:station:TCOON:127:1,2016-01-05T06:18:00Z,28.2598,-96.7737,0.0,10.5,2 
TCOON,ioos:station:TCOON:127:1,2016-01-05T07:24:00Z,28.2598,-96.7737,0.0,10.4,2 
TCOON,ioos:station:TCOON:127:1,2016-01-05T08:18:00Z,28.2598,-96.7737,0.0,10.3,2 
TCOON,ioos:station:TCOON:127:1,2016-01-05T10:30:00Z,28.2598,-96.7737,0.0,10.2,2 
TCOON,ioos:station:TCOON:127:1,2016-01-05T11:24:00Z,28.2598,-96.7737,0.0,10.2,2 
TCOON,ioos:station:TCOON:127:1,2016-01-05T14:18:00Z,28.2598,-96.7737,0.0,10.2,2 
TCOON,ioos:station:TCOON:127:1,2016-01-05T16:54:00Z,28.2598,-96.7737,0.0,10.6,2 
TCOON,ioos:station:TCOON:127:1,2016-01-06T15:24:00Z,28.2598,-96.7737,0.0,11.5,2 
TCOON,ioos:station:TCOON:127:1,2016-01-06T16:18:00Z,28.2598,-96.7737,0.0,11.7,2 
TCOON,ioos:station:TCOON:127:1,2016-01-06T17:18:00Z,28.2598,-96.7737,0.0,11.9,2 
TCOON,ioos:station:TCOON:127:1,2016-01-06T18:18:00Z,28.2598,-96.7737,0.0,12.1,2 
TCOON,ioos:station:TCOON:127:1,2016-01-06T19:18:00Z,28.2598,-96.7737,0.0,12.3,2 
TCOON,ioos:station:TCOON:127:1,2016-01-06T20:18:00Z,28.2598,-96.7737,0.0,12.5,2 
TCOON,ioos:station:TCOON:127:1,2016-01-06T21:18:00Z,28.2598,-96.7737,0.0,12.4,2 
TCOON,ioos:station:TCOON:127:1,2016-01-06T22:18:00Z,28.2598,-96.7737,0.0,12.7,2 
TCOON,ioos:station:TCOON:127:1,2016-01-06T23:18:00Z,28.2598,-96.7737,0.0,12.7,2 
TCOON,ioos:station:TCOON:127:1,2016-01-07T00:18:00Z,28.2598,-96.7737,0.0,12.6,2 
TCOON,ioos:station:TCOON:127:1,2016-01-07T01:18:00Z,28.2598,-96.7737,0.0,12.7,2 
TCOON,ioos:station:TCOON:127:1,2016-01-07T02:18:00Z,28.2598,-96.7737,0.0,12.7,2 
TCOON,ioos:station:TCOON:127:1,2016-01-07T03:18:00Z,28.2598,-96.7737,0.0,12.6,2 
TCOON,ioos:station:TCOON:127:1,2016-01-07T04:18:00Z,28.2598,-96.7737,0.0,12.7,2 
TCOON,ioos:station:TCOON:127:1,2016-01-07T05:18:00Z,28.2598,-96.7737,0.0,12.7,2 
TCOON,ioos:station:TCOON:127:1,2016-01-07T06:18:00Z,28.2598,-96.7737,0.0,12.6,2 
TCOON,ioos:station:TCOON:127:1,2016-01-07T07:18:00Z,28.2598,-96.7737,0.0,12.7,2 
TCOON,ioos:station:TCOON:127:1,2016-01-07T08:18:00Z,28.2598,-96.7737,0.0,12.7,2 
TCOON,ioos:station:TCOON:127:1,2016-01-07T09:24:00Z,28.2598,-96.7737,0.0,12.7,2 
TCOON,ioos:station:TCOON:127:1,2016-01-07T10:18:00Z,28.2598,-96.7737,0.0,12.6,2 
TCOON,ioos:station:TCOON:127:1,2016-01-07T11:18:00Z,28.2598,-96.7737,0.0,12.7,2 
TCOON,ioos:station:TCOON:127:1,2016-01-07T12:30:00Z,28.2598,-96.7737,0.0,12.7,2 
TCOON,ioos:station:TCOON:127:1,2016-01-07T13:18:00Z,28.2598,-96.7737,0.0,12.6,2 
TCOON,ioos:station:TCOON:127:1,2016-01-07T14:18:00Z,28.2598,-96.7737,0.0,12.6,2 
TCOON,ioos:station:TCOON:127:1,2016-01-07T15:30:00Z,28.2598,-96.7737,0.0,12.7,2 
TCOON,ioos:station:TCOON:127:1,2016-01-07T16:18:00Z,28.2598,-96.7737,0.0,12.8,2 
TCOON,ioos:station:TCOON:127:1,2016-01-07T17:18:00Z,28.2598,-96.7737,0.0,12.8,2 
TCOON,ioos:station:TCOON:127:1,2016-01-07T18:18:00Z,28.2598,-96.7737,0.0,12.8,2 
TCOON,ioos:station:TCOON:127:1,2016-01-07T19:18:00Z,28.2598,-96.7737,0.0,13.2,2 
TCOON,ioos:station:TCOON:127:1,2016-01-07T20:18:00Z,28.2598,-96.7737,0.0,13.3,2 
TCOON,ioos:station:TCOON:127:1,2016-01-07T21:18:00Z,28.2598,-96.7737,0.0,13.5,2 
TCOON,ioos:station:TCOON:127:1,2016-01-07T22:18:00Z,28.2598,-96.7737,0.0,13.3,2 
TCOON,ioos:station:TCOON:127:1,2016-01-07T23:18:00Z,28.2598,-96.7737,0.0,13.1,2 
TCOON,ioos:station:TCOON:127:1,2016-01-08T00:18:00Z,28.2598,-96.7737,0.0,13.0,2 
TCOON,ioos:station:TCOON:127:1,2016-01-08T01:18:00Z,28.2598,-96.7737,0.0,13.0,2 
TCOON,ioos:station:TCOON:127:1,2016-01-08T02:18:00Z,28.2598,-96.7737,0.0,13.0,2 
TCOON,ioos:station:TCOON:127:1,2016-01-08T03:18:00Z,28.2598,-96.7737,0.0,13.1,2 
TCOON,ioos:station:TCOON:127:1,2016-01-08T04:18:00Z,28.2598,-96.7737,0.0,13.0,2 
TCOON,ioos:station:TCOON:127:1,2016-01-08T05:24:00Z,28.2598,-96.7737,0.0,13.0,2 
TCOON,ioos:station:TCOON:127:1,2016-01-08T06:24:00Z,28.2598,-96.7737,0.0,13.0,2 
TCOON,ioos:station:TCOON:127:1,2016-01-08T07:24:00Z,28.2598,-96.7737,0.0,13.0,2 
TCOON,ioos:station:TCOON:127:1,2016-01-08T08:18:00Z,28.2598,-96.7737,0.0,13.0,2 
TCOON,ioos:station:TCOON:127:1,2016-01-08T09:30:00Z,28.2598,-96.7737,0.0,13.1,2 
TCOON,ioos:station:TCOON:127:1,2016-01-08T20:36:00Z,28.2598,-96.7737,0.0,13.2,2 
TCOON,ioos:station:TCOON:127:1,2016-01-09T08:00:00Z,28.2598,-96.7737,0.0,13.8,2 
TCOON,ioos:station:TCOON:127:1,2016-01-09T08:18:00Z,28.2598,-96.7737,0.0,13.8,2 
TCOON,ioos:station:TCOON:127:1,2016-01-09T09:54:00Z,28.2598,-96.7737,0.0,13.8,2 
TCOON,ioos:station:TCOON:127:1,2016-01-09T11:18:00Z,28.2598,-96.7737,0.0,13.7,2 
TCOON,ioos:station:TCOON:127:1,2016-01-09T12:18:00Z,28.2598,-96.7737,0.0,13.5,2 
TCOON,ioos:station:TCOON:127:1,2016-01-09T13:30:00Z,28.2598,-96.7737,0.0,13.4,2 
TCOON,ioos:station:TCOON:127:1,2016-01-09T14:18:00Z,28.2598,-96.7737,0.0,13.3,2 
TCOON,ioos:station:TCOON:127:1,2016-01-09T15:18:00Z,28.2598,-96.7737,0.0,13.4,2 
TCOON,ioos:station:TCOON:127:1,2016-01-09T16:18:00Z,28.2598,-96.7737,0.0,13.4,2 
TCOON,ioos:station:TCOON:127:1,2016-01-09T17:18:00Z,28.2598,-96.7737,0.0,13.5,2 
TCOON,ioos:station:TCOON:127:1,2016-01-09T18:24:00Z,28.2598,-96.7737,0.0,13.7,2 
TCOON,ioos:station:TCOON:127:1,2016-01-09T19:18:00Z,28.2598,-96.7737,0.0,13.9,2 
TCOON,ioos:station:TCOON:127:1,2016-01-09T20:18:00Z,28.2598,-96.7737,0.0,14.1,2 
TCOON,ioos:station:TCOON:127:1,2016-01-09T21:18:00Z,28.2598,-96.7737,0.0,14.2,2 
TCOON,ioos:station:TCOON:127:1,2016-01-09T22:18:00Z,28.2598,-96.7737,0.0,14.3,2 
TCOON,ioos:station:TCOON:127:1,2016-01-09T23:18:00Z,28.2598,-96.7737,0.0,14.2,2 
TCOON,ioos:station:TCOON:127:1,2016-01-10T00:18:00Z,28.2598,-96.7737,0.0,14.1,2 
TCOON,ioos:station:TCOON:127:1,2016-01-10T01:18:00Z,28.2598,-96.7737,0.0,14.0,2 
TCOON,ioos:station:TCOON:127:1,2016-01-10T02:18:00Z,28.2598,-96.7737,0.0,13.8,2 
TCOON,ioos:station:TCOON:127:1,2016-01-10T03:18:00Z,28.2598,-96.7737,0.0,13.7,2 
TCOON,ioos:station:TCOON:127:1,2016-01-10T04:18:00Z,28.2598,-96.7737,0.0,13.4,2 
TCOON,ioos:station:TCOON:127:1,2016-01-10T05:18:00Z,28.2598,-96.7737,0.0,13.3,2 
TCOON,ioos:station:TCOON:127:1,2016-01-10T06:18:00Z,28.2598,-96.7737,0.0,13.0,2 
TCOON,ioos:station:TCOON:127:1,2016-01-10T07:24:00Z,28.2598,-96.7737,0.0,12.8,2 
TCOON,ioos:station:TCOON:127:1,2016-01-10T08:36:00Z,28.2598,-96.7737,0.0,12.5,2 
TCOON,ioos:station:TCOON:127:1,2016-01-10T09:24:00Z,28.2598,-96.7737,0.0,12.4,2 
TCOON,ioos:station:TCOON:127:1,2016-01-10T10:30:00Z,28.2598,-96.7737,0.0,12.1,2 
TCOON,ioos:station:TCOON:127:1,2016-01-10T11:18:00Z,28.2598,-96.7737,0.0,12.0,2 
TCOON,ioos:station:TCOON:127:1,2016-01-10T12:18:00Z,28.2598,-96.7737,0.0,11.8,2 
TCOON,ioos:station:TCOON:127:1,2016-01-10T13:30:00Z,28.2598,-96.7737,0.0,11.7,2 
TCOON,ioos:station:TCOON:127:1,2016-01-10T14:42:00Z,28.2598,-96.7737,0.0,11.4,2 
TCOON,ioos:station:TCOON:127:1,2016-01-10T15:18:00Z,28.2598,-96.7737,0.0,11.5,2 
TCOON,ioos:station:TCOON:127:1,2016-01-10T19:00:00Z,28.2598,-96.7737,0.0,11.8,2 
TCOON,ioos:station:TCOON:127:1,2016-01-10T20:00:00Z,28.2598,-96.7737,0.0,12.0,2 
TCOON,ioos:station:TCOON:127:1,2016-01-10T22:18:00Z,28.2598,-96.7737,0.0,12.3,2 
TCOON,ioos:station:TCOON:127:1,2016-01-10T23:36:00Z,28.2598,-96.7737,0.0,12.2,2 
TCOON,ioos:station:TCOON:127:1,2016-01-11T00:18:00Z,28.2598,-96.7737,0.0,12.1,2 
TCOON,ioos:station:TCOON:127:1,2016-01-11T01:18:00Z,28.2598,-96.7737,0.0,12.1,2 
TCOON,ioos:station:TCOON:127:1,2016-01-11T02:18:00Z,28.2598,-96.7737,0.0,12.0,2 
TCOON,ioos:station:TCOON:127:1,2016-01-11T03:24:00Z,28.2598,-96.7737,0.0,11.9,2 
TCOON,ioos:station:TCOON:127:1,2016-01-11T04:18:00Z,28.2598,-96.7737,0.0,11.8,2 
TCOON,ioos:station:TCOON:127:1,2016-01-11T05:24:00Z,28.2598,-96.7737,0.0,11.8,2 
TCOON,ioos:station:TCOON:127:1,2016-01-11T06:24:00Z,28.2598,-96.7737,0.0,11.7,2 
TCOON,ioos:station:TCOON:127:1,2016-01-11T07:18:00Z,28.2598,-96.7737,0.0,11.6,2 
TCOON,ioos:station:TCOON:127:1,2016-01-11T08:18:00Z,28.2598,-96.7737,0.0,11.5,2 
TCOON,ioos:station:TCOON:127:1,2016-01-11T09:30:00Z,28.2598,-96.7737,0.0,11.4,2 
TCOON,ioos:station:TCOON:127:1,2016-01-11T10:36:00Z,28.2598,-96.7737,0.0,11.3,2 
TCOON,ioos:station:TCOON:127:1,2016-01-11T12:42:00Z,28.2598,-96.7737,0.0,11.2,2 
TCOON,ioos:station:TCOON:127:1,2016-01-11T13:18:00Z,28.2598,-96.7737,0.0,11.2,2 
TCOON,ioos:station:TCOON:127:1,2016-01-11T14:30:00Z,28.2598,-96.7737,0.0,11.1,2 
TCOON,ioos:station:TCOON:127:1,2016-01-11T17:42:00Z,28.2598,-96.7737,0.0,11.1,2 
TCOON,ioos:station:TCOON:127:1,2016-01-11T18:18:00Z,28.2598,-96.7737,0.0,11.1,2 
TCOON,ioos:station:TCOON:127:1,2016-01-11T19:18:00Z,28.2598,-96.7737,0.0,11.2,2 
TCOON,ioos:station:TCOON:127:1,2016-01-11T20:36:00Z,28.2598,-96.7737,0.0,11.2,2 
TCOON,ioos:station:TCOON:127:1,2016-01-11T21:30:00Z,28.2598,-96.7737,0.0,11.2,2 
TCOON,ioos:station:TCOON:127:1,2016-01-11T22:18:00Z,28.2598,-96.7737,0.0,11.2,2 
TCOON,ioos:station:TCOON:127:1,2016-01-11T23:18:00Z,28.2598,-96.7737,0.0,11.3,2 
TCOON,ioos:station:TCOON:127:1,2016-01-12T00:24:00Z,28.2598,-96.7737,0.0,11.3,2 
TCOON,ioos:station:TCOON:127:1,2016-01-12T01:18:00Z,28.2598,-96.7737,0.0,11.3,2 
TCOON,ioos:station:TCOON:127:1,2016-01-12T02:18:00Z,28.2598,-96.7737,0.0,11.2,2 
TCOON,ioos:station:TCOON:127:1,2016-01-12T03:18:00Z,28.2598,-96.7737,0.0,11.2,2 
TCOON,ioos:station:TCOON:127:1,2016-01-12T04:24:00Z,28.2598,-96.7737,0.0,11.2,2 
TCOON,ioos:station:TCOON:127:1,2016-01-12T05:18:00Z,28.2598,-96.7737,0.0,11.2,2 
TCOON,ioos:station:TCOON:127:1,2016-01-12T06:24:00Z,28.2598,-96.7737,0.0,11.1,2 
TCOON,ioos:station:TCOON:127:1,2016-01-12T07:18:00Z,28.2598,-96.7737,0.0,11.1,2 
TCOON,ioos:station:TCOON:127:1,2016-01-12T08:36:00Z,28.2598,-96.7737,0.0,11.1,2 
TCOON,ioos:station:TCOON:127:1,2016-01-12T09:30:00Z,28.2598,-96.7737,0.0,11.1,2 
TCOON,ioos:station:TCOON:127:1,2016-01-12T10:18:00Z,28.2598,-96.7737,0.0,11.1,2 
TCOON,ioos:station:TCOON:127:1,2016-01-12T11:18:00Z,28.2598,-96.7737,0.0,11.0,2 
TCOON,ioos:station:TCOON:127:1,2016-01-12T12:18:00Z,28.2598,-96.7737,0.0,11.0,2 
TCOON,ioos:station:TCOON:127:1,2016-01-12T13:36:00Z,28.2598,-96.7737,0.0,11.0,2 
TCOON,ioos:station:TCOON:127:1,2016-01-12T17:12:00Z,28.2598,-96.7737,0.0,11.1,2 
TCOON,ioos:station:TCOON:127:1,2016-01-12T18:48:00Z,28.2598,-96.7737,0.0,11.7,2 
TCOON,ioos:station:TCOON:127:1,2016-01-12T20:06:00Z,28.2598,-96.7737,0.0,12.5,2 
TCOON,ioos:station:TCOON:127:1,2016-01-13T00:36:00Z,28.2598,-96.7737,0.0,12.3,2 
TCOON,ioos:station:TCOON:127:1,2016-01-13T02:00:00Z,28.2598,-96.7737,0.0,11.9,2 
TCOON,ioos:station:TCOON:127:1,2016-01-13T03:54:00Z,28.2598,-96.7737,0.0,12.0,2 
TCOON,ioos:station:TCOON:127:1,2016-01-13T04:30:00Z,28.2598,-96.7737,0.0,12.3,2 
TCOON,ioos:station:TCOON:127:1,2016-01-13T06:24:00Z,28.2598,-96.7737,0.0,12.7,2 
TCOON,ioos:station:TCOON:127:1,2016-01-13T07:18:00Z,28.2598,-96.7737,0.0,12.6,2 
TCOON,ioos:station:TCOON:127:1,2016-01-13T08:24:00Z,28.2598,-96.7737,0.0,12.6,2 
TCOON,ioos:station:TCOON:127:1,2016-01-13T09:24:00Z,28.2598,-96.7737,0.0,12.4,2 
TCOON,ioos:station:TCOON:127:1,2016-01-13T10:18:00Z,28.2598,-96.7737,0.0,12.5,2 
TCOON,ioos:station:TCOON:127:1,2016-01-13T11:30:00Z,28.2598,-96.7737,0.0,12.4,2 
TCOON,ioos:station:TCOON:127:1,2016-01-13T13:00:00Z,28.2598,-96.7737,0.0,11.5,2 
TCOON,ioos:station:TCOON:127:1,2016-01-13T17:24:00Z,28.2598,-96.7737,0.0,12.1,2 
TCOON,ioos:station:TCOON:127:1,2016-01-13T18:18:00Z,28.2598,-96.7737,0.0,12.3,2 
TCOON,ioos:station:TCOON:127:1,2016-01-13T19:18:00Z,28.2598,-96.7737,0.0,12.4,2 
TCOON,ioos:station:TCOON:127:1,2016-01-13T20:18:00Z,28.2598,-96.7737,0.0,12.7,2 
TCOON,ioos:station:TCOON:127:1,2016-01-13T21:18:00Z,28.2598,-96.7737,0.0,12.5,2 
TCOON,ioos:station:TCOON:127:1,2016-01-13T22:24:00Z,28.2598,-96.7737,0.0,13.0,2 
TCOON,ioos:station:TCOON:127:1,2016-01-13T23:48:00Z,28.2598,-96.7737,0.0,12.9,2 
TCOON,ioos:station:TCOON:127:1,2016-01-14T00:30:00Z,28.2598,-96.7737,0.0,13.0,2 
TCOON,ioos:station:TCOON:127:1,2016-01-14T01:18:00Z,28.2598,-96.7737,0.0,12.8,2 
TCOON,ioos:station:TCOON:127:1,2016-01-14T02:18:00Z,28.2598,-96.7737,0.0,12.9,2 
TCOON,ioos:station:TCOON:127:1,2016-01-14T03:18:00Z,28.2598,-96.7737,0.0,13.2,2 
TCOON,ioos:station:TCOON:127:1,2016-01-14T04:18:00Z,28.2598,-96.7737,0.0,13.0,2 
TCOON,ioos:station:TCOON:127:1,2016-01-14T05:18:00Z,28.2598,-96.7737,0.0,13.0,2 
TCOON,ioos:station:TCOON:127:1,2016-01-14T06:18:00Z,28.2598,-96.7737,0.0,13.0,2 
TCOON,ioos:station:TCOON:127:1,2016-01-14T07:18:00Z,28.2598,-96.7737,0.0,12.9,2 
TCOON,ioos:station:TCOON:127:1,2016-01-14T08:18:00Z,28.2598,-96.7737,0.0,12.9,2 
TCOON,ioos:station:TCOON:127:1,2016-01-14T09:42:00Z,28.2598,-96.7737,0.0,12.9,2 
TCOON,ioos:station:TCOON:127:1,2016-01-14T10:18:00Z,28.2598,-96.7737,0.0,12.9,2 
TCOON,ioos:station:TCOON:127:1,2016-01-14T11:18:00Z,28.2598,-96.7737,0.0,12.9,2 
TCOON,ioos:station:TCOON:127:1,2016-01-14T12:18:00Z,28.2598,-96.7737,0.0,12.9,2 
TCOON,ioos:station:TCOON:127:1,2016-01-14T13:18:00Z,28.2598,-96.7737,0.0,12.8,2 
TCOON,ioos:station:TCOON:127:1,2016-01-14T14:18:00Z,28.2598,-96.7737,0.0,12.9,2 
TCOON,ioos:station:TCOON:127:1,2016-01-14T15:18:00Z,28.2598,-96.7737,0.0,12.9,2 
TCOON,ioos:station:TCOON:127:1,2016-01-14T16:18:00Z,28.2598,-96.7737,0.0,13.1,2 
TCOON,ioos:station:TCOON:127:1,2016-01-14T17:18:00Z,28.2598,-96.7737,0.0,13.3,2 
TCOON,ioos:station:TCOON:127:1,2016-01-14T18:18:00Z,28.2598,-96.7737,0.0,13.1,2 
TCOON,ioos:station:TCOON:127:1,2016-01-14T19:18:00Z,28.2598,-96.7737,0.0,13.2,2 
TCOON,ioos:station:TCOON:127:1,2016-01-14T20:18:00Z,28.2598,-96.7737,0.0,13.3,2 
TCOON,ioos:station:TCOON:127:1,2016-01-14T21:18:00Z,28.2598,-96.7737,0.0,13.4,2 
TCOON,ioos:station:TCOON:127:1,2016-01-14T22:18:00Z,28.2598,-96.7737,0.0,13.9,2 
TCOON,ioos:station:TCOON:127:1,2016-01-14T23:18:00Z,28.2598,-96.7737,0.0,13.7,2 
TCOON,ioos:station:TCOON:127:1,2016-01-15T00:18:00Z,28.2598,-96.7737,0.0,13.9,2 
TCOON,ioos:station:TCOON:127:1,2016-01-15T01:18:00Z,28.2598,-96.7737,0.0,13.8,2 
TCOON,ioos:station:TCOON:127:1,2016-01-15T02:18:00Z,28.2598,-96.7737,0.0,13.9,2 
TCOON,ioos:station:TCOON:127:1,2016-01-15T03:24:00Z,28.2598,-96.7737,0.0,13.7,2 
TCOON,ioos:station:TCOON:127:1,2016-01-15T04:18:00Z,28.2598,-96.7737,0.0,13.6,2 
TCOON,ioos:station:TCOON:127:1,2016-01-15T05:18:00Z,28.2598,-96.7737,0.0,13.7,2 
TCOON,ioos:station:TCOON:127:1,2016-01-15T06:18:00Z,28.2598,-96.7737,0.0,13.8,2 
TCOON,ioos:station:TCOON:127:1,2016-01-15T07:18:00Z,28.2598,-96.7737,0.0,13.7,2 
TCOON,ioos:station:TCOON:127:1,2016-01-15T08:18:00Z,28.2598,-96.7737,0.0,13.7,2 
TCOON,ioos:station:TCOON:127:1,2016-01-15T09:36:00Z,28.2598,-96.7737,0.0,13.7,2 
TCOON,ioos:station:TCOON:127:1,2016-01-15T10:18:00Z,28.2598,-96.7737,0.0,13.8,2 
TCOON,ioos:station:TCOON:127:1,2016-01-15T11:18:00Z,28.2598,-96.7737,0.0,13.7,2 
TCOON,ioos:station:TCOON:127:1,2016-01-15T12:18:00Z,28.2598,-96.7737,0.0,13.7,2 
TCOON,ioos:station:TCOON:127:1,2016-01-15T13:18:00Z,28.2598,-96.7737,0.0,13.7,2 
TCOON,ioos:station:TCOON:127:1,2016-01-15T14:30:00Z,28.2598,-96.7737,0.0,13.7,2 
TCOON,ioos:station:TCOON:127:1,2016-01-15T15:36:00Z,28.2598,-96.7737,0.0,13.7,2 
TCOON,ioos:station:TCOON:127:1,2016-01-15T16:24:00Z,28.2598,-96.7737,0.0,13.8,2 
TCOON,ioos:station:TCOON:127:1,2016-01-15T17:24:00Z,28.2598,-96.7737,0.0,13.9,2 
TCOON,ioos:station:TCOON:127:1,2016-01-15T18:18:00Z,28.2598,-96.7737,0.0,14.2,2 
TCOON,ioos:station:TCOON:127:1,2016-01-15T19:30:00Z,28.2598,-96.7737,0.0,14.4,2 
TCOON,ioos:station:TCOON:127:1,2016-01-15T20:24:00Z,28.2598,-96.7737,0.0,15.6,2 
TCOON,ioos:station:TCOON:127:1,2016-01-15T21:48:00Z,28.2598,-96.7737,0.0,14.9,2 
TCOON,ioos:station:TCOON:127:1,2016-01-15T22:18:00Z,28.2598,-96.7737,0.0,14.9,2 
TCOON,ioos:station:TCOON:127:1,2016-01-15T23:18:00Z,28.2598,-96.7737,0.0,15.1,2 
TCOON,ioos:station:TCOON:127:1,2016-01-16T00:18:00Z,28.2598,-96.7737,0.0,15.0,2 
TCOON,ioos:station:TCOON:127:1,2016-01-16T01:18:00Z,28.2598,-96.7737,0.0,15.3,2 
TCOON,ioos:station:TCOON:127:1,2016-01-16T02:18:00Z,28.2598,-96.7737,0.0,15.4,2 
TCOON,ioos:station:TCOON:127:1,2016-01-16T03:30:00Z,28.2598,-96.7737,0.0,15.6,2 
TCOON,ioos:station:TCOON:127:1,2016-01-16T04:18:00Z,28.2598,-96.7737,0.0,15.5,2 
TCOON,ioos:station:TCOON:127:1,2016-01-16T05:18:00Z,28.2598,-96.7737,0.0,15.3,2 
TCOON,ioos:station:TCOON:127:1,2016-01-16T06:30:00Z,28.2598,-96.7737,0.0,15.2,2 
TCOON,ioos:station:TCOON:127:1,2016-01-16T07:18:00Z,28.2598,-96.7737,0.0,15.1,2 
TCOON,ioos:station:TCOON:127:1,2016-01-16T08:18:00Z,28.2598,-96.7737,0.0,15.0,2 
TCOON,ioos:station:TCOON:127:1,2016-01-16T09:30:00Z,28.2598,-96.7737,0.0,14.8,2 
TCOON,ioos:station:TCOON:127:1,2016-01-16T10:18:00Z,28.2598,-96.7737,0.0,14.7,2 
TCOON,ioos:station:TCOON:127:1,2016-01-16T11:18:00Z,28.2598,-96.7737,0.0,14.6,2 
TCOON,ioos:station:TCOON:127:1,2016-01-16T12:18:00Z,28.2598,-96.7737,0.0,14.6,2 
TCOON,ioos:station:TCOON:127:1,2016-01-16T13:18:00Z,28.2598,-96.7737,0.0,14.8,2 
TCOON,ioos:station:TCOON:127:1,2016-01-16T14:18:00Z,28.2598,-96.7737,0.0,14.8,2 
TCOON,ioos:station:TCOON:127:1,2016-01-16T15:24:00Z,28.2598,-96.7737,0.0,14.7,2 
TCOON,ioos:station:TCOON:127:1,2016-01-16T16:24:00Z,28.2598,-96.7737,0.0,14.7,2 
TCOON,ioos:station:TCOON:127:1,2016-01-16T17:42:00Z,28.2598,-96.7737,0.0,14.7,2 
TCOON,ioos:station:TCOON:127:1,2016-01-16T18:18:00Z,28.2598,-96.7737,0.0,14.6,2 
TCOON,ioos:station:TCOON:127:1,2016-01-16T19:18:00Z,28.2598,-96.7737,0.0,14.4,2 
TCOON,ioos:station:TCOON:127:1,2016-01-16T20:18:00Z,28.2598,-96.7737,0.0,14.4,2 
TCOON,ioos:station:TCOON:127:1,2016-01-16T21:18:00Z,28.2598,-96.7737,0.0,14.5,2 
TCOON,ioos:station:TCOON:127:1,2016-01-16T22:18:00Z,28.2598,-96.7737,0.0,14.6,2 
TCOON,ioos:station:TCOON:127:1,2016-01-16T23:24:00Z,28.2598,-96.7737,0.0,14.5,2 
TCOON,ioos:station:TCOON:127:1,2016-01-17T00:18:00Z,28.2598,-96.7737,0.0,14.5,2 
TCOON,ioos:station:TCOON:127:1,2016-01-17T01:24:00Z,28.2598,-96.7737,0.0,14.4,2 
TCOON,ioos:station:TCOON:127:1,2016-01-17T02:18:00Z,28.2598,-96.7737,0.0,14.5,2 
TCOON,ioos:station:TCOON:127:1,2016-01-17T03:18:00Z,28.2598,-96.7737,0.0,14.3,2 
TCOON,ioos:station:TCOON:127:1,2016-01-17T04:18:00Z,28.2598,-96.7737,0.0,14.2,2 
TCOON,ioos:station:TCOON:127:1,2016-01-17T05:30:00Z,28.2598,-96.7737,0.0,14.0,2 
TCOON,ioos:station:TCOON:127:1,2016-01-17T06:54:00Z,28.2598,-96.7737,0.0,13.7,2 
TCOON,ioos:station:TCOON:127:1,2016-01-17T08:18:00Z,28.2598,-96.7737,0.0,13.3,2 
TCOON,ioos:station:TCOON:127:1,2016-01-17T09:42:00Z,28.2598,-96.7737,0.0,13.0,2 
TCOON,ioos:station:TCOON:127:1,2016-01-17T10:30:00Z,28.2598,-96.7737,0.0,13.0,2 
TCOON,ioos:station:TCOON:127:1,2016-01-17T11:18:00Z,28.2598,-96.7737,0.0,12.8,2 
TCOON,ioos:station:TCOON:127:1,2016-01-17T12:18:00Z,28.2598,-96.7737,0.0,12.7,2 
TCOON,ioos:station:TCOON:127:1,2016-01-17T13:18:00Z,28.2598,-96.7737,0.0,12.5,2 
TCOON,ioos:station:TCOON:127:1,2016-01-17T14:18:00Z,28.2598,-96.7737,0.0,12.4,2 